Regional Weather Roundup
Issued by NWS Grand Forks, ND

Home | Current Version | Previous Version | Graphics & Text | Print | Product List | Glossary On
Versions: 1 2 3 4 5 6 7 8 9 10 11 12 13 14 15 16 17 18 19 20 21 22 23 24 25 26 27 28 29 30 31 32 33 34 35 36 37 38 39 40 41 42 43 44 45 46 47 48 49 50
000
ASUS43 KFGF 290131
RWRFGF
PRAIRIE TO PINES  WEATHER ROUNDUP
NATIONAL WEATHER SERVICE EASTERN NORTH DAKOTA/GRAND FORKS ND
800 PM CDT MON JUL 28 2014

 **SATELLITE DATA USED TO AUGMENT SKY COVER AT AUTOMATED STATIONS**
 *****  WEATHER ACROSS EASTERN NORTH DAKOTA  *****

CITY           SKY/WX    TMP DP  RH WIND       PRES   REMARKS
GRAND FORKS    PTCLDY    71  57  61 N5        30.18F
GRAND FRKS AFB CLEAR     70  57  62 N3        30.20S
GRAND FRKS NWS   N/A     70 N/A N/A MISG        N/A
DEVILS LAKE    SUNNY     70  52  52 W5        30.21S
FARGO          CLEAR     72  54  53 W7        30.18F
WAHPETON ARPT  CLEAR     68  52  56 NW5       30.19S
$$

 ***** WEATHER ACROSS CENTRAL AND WESTERN NORTH DAKOTA  *****

CITY           SKY/WX    TMP DP  RH WIND       PRES   REMARKS
BISMARCK       SUNNY     73  51  46 E8        30.23F
MINOT          SUNNY     71  56  58 NE3       30.22F
JAMESTOWN      MOSUNNY   69  52  54 N3        30.22F
MINOT AFB      SUNNY     73  55  54 E6        30.22F
GARRISON         N/A     71  57  61 SE5       30.23F
WILLISTON      SUNNY     80  49  33 SE7       30.20F
DICKINSON      SUNNY     74  56  53 E7        30.23F
HETTINGER      MOSUNNY   73  51  46 E9        30.25F
$$

 *****  OTHER AIRPORT OBSERVATIONS IN OUR AREA  *****

CITY           SKY/WX    TMP DP  RH WIND       PRES   REMARKS
WALHALLA         N/A     70  57  64 CALM        N/A
GRAFTON AIRPOR FAIR      70  55  60 NW5       30.19S
VALLEY CITY AR FAIR      68  54  60 NW6       30.22S
CANDO          FAIR      70  55  60 NW3       30.23S
CAVALIER APRT  FAIR      72  55  56 NW5       30.19S
GWINNER        CLEAR     64  55  72 W5        30.22F
SHEYENNE NWR     N/A     72  53  52 NW6       29.95
ROLLA          FAIR      68  54  60 N5        30.24F
 ***** THE ABOVE OBSERVATIONS ARE NON NWS ARE NOT QUALITY
       CONTROLLED AND MAY MIS-REPORT RAIN FOR SNOW...
$$

  *****  WEATHER ACROSS NORTHERN MINNESOTA  *****

CITY           SKY/WX    TMP DP  RH WIND       PRES   REMARKS
FLAG ISLAND    PTCLDY    73  55  53 NW10      30.12S
WARROAD        PTCLDY    72  61  68 W5        30.15S
ROSEAU           N/A     72  57  60 W8        30.16S
HALLOCK        CLEAR     72  55  56 NW6       30.17S
THF RVR FALLS  PTCLDY    70  55  60 NW7       30.18S
BAUDETTE       CLEAR     71  55  56 W5        30.15F
WASKISH        CLEAR     70  55  60 CALM      30.15S
CROOKSTON      CLEAR     70  61  73 NW5       30.19S
$$
  *****  WEATHER ACROSS CENTRAL AND WEST MINNESOTA  *****

CITY           SKY/WX    TMP DP  RH WIND       PRES   REMARKS
FOSSTON        CLEAR     66  54  63 NW3       30.19F
BEMIDJI        CLEAR     67  53  61 W7        30.17S
PARK RAPIDS    CLEAR     68  54  60 NW9       30.17F
ELBOW LAKE     FAIR      66  54  64 NW7       30.19S
WADENA         CLEAR     64  55  72 NW5       30.18S
DETROIT LAKES  CLEAR     66  54  63 NW6       30.20S
MOORHEAD       CLEAR     70  61  73 CALM      30.19F
FERGUS FALLS   CLEAR     66  52  59 N6        30.18F
MORRIS MN      CLEAR     66  57  72 NW6       30.18F
STAPLES        CLEAR     66  54  63 NW6       30.17S
$$
  *****  WEATHER ELSEWHERE ACROSS MINNESOTA  *****

CITY           SKY/WX    TMP DP  RH WIND       PRES   REMARKS
DULUTH         PTCLDY    69  54  58 NW6       30.10S
INTRNTL FALLS  CLEAR     69  58  67 W6        30.12S
ELY            CLEAR     66  55  68 NW6       30.10S
CLOQUET        CLEAR     68  54  60 W5        30.11S
WHEATON        CLEAR     66  54  63 W6        30.21F
BRAINERD       CLEAR     70  53  54 N8        30.15S
HIBBING        CLEAR     70  53  54 N8        30.12S
ALEXANDRIA     CLEAR     71  52  50 NW7       30.19F
SAINT CLOUD    PTCLDY    71  56  58 NW5       30.14F
MINNEAPOLIS    PTCLDY    73  53  49 NW8       30.13S
$$

  *****  WEATHER ACROSS SOUTH DAKOTA  *****

CITY           SKY/WX    TMP DP  RH WIND       PRES   REMARKS
SIOUX FALLS    PTCLDY    70  54  56 NE8       30.20F
BROOKINGS      NOT AVBL
WATERTOWN      PTCLDY    67  50  54 N8        30.22F
HURON          CLEAR     72  51  47 NE7       30.21S
SISSETON         N/A     69  55  60 N5        30.20F
ABERDEEN       CLEAR     68  52  56 NE7       30.22F
MITCHELL       CLEAR     72  54  53 N5        30.21F
PIERRE         SUNNY     74  53  48 NE8       30.20F
MOBRIDGE       SUNNY     73  52  47 NE6       30.21F
RAPID CITY     SUNNY     73  57  57 SE7       30.23F
$$

  *****  SOME WEATHER IN NEARBY STATES *****

CITY           SKY/WX    TMP DP  RH WIND       PRES   REMARKS
GLASGOW MT     MOSUNNY   87  45  23 SE8       30.17S
GREAT FALLS MT PTSUNNY   87  42  20 N5        30.12F
CHEYENNE WY    PTSUNNY   72  54  53 E9        30.31R
SCOTTSBLUFF NE SUNNY     85  59  41 E10       30.18F
OMAHA NE       PTCLDY    75  55  49 NW8       30.17S
DES MOINES IA  MOCLDY    71  58  63 N6        30.15S
DAVENPORT IA   CLEAR     65  56  72 NW5       30.12F
CHICAGO IL     MOCLDY    66  49  54 E7        30.06F
EAU CLAIRE WI  CLEAR     70  53  54 NW5       30.10F
LA CROSSE WI   CLEAR     71  53  52 NW8       30.10F
$$

  *****  SOME NATIONAL WEATHER *****

CITY           SKY/WX    TMP DP  RH WIND       PRES   REMARKS
LA GUARDIA NY  PTCLDY    74  59  59 W18G25    29.62R
RALEIGH NC     MOCLDY    80  57  45 CALM      29.85R
ATLANTA GA     PTCLDY    80  59  48 NW9       29.95R
NEW ORLEANS LA MOCLDY    87  75  67 W10       29.98R HX  96
OKLAHOMA CITY  MOCLDY    83  58  42 NE6       30.13S
ALBUQUERQUE NM PTSUNNY   82  51  34 S6        30.27S
SALT LAKE CITY LGT RAIN  68  64  87 SE12      30.23F
LOS ANGELES CA MOSUNNY   75  61  61 W14       29.99S
BOISE ID       MOSUNNY   98  41  14 SW6       29.99F HX  93
SEATTLE WA     MOSUNNY   85  51  30 NW9       30.08F
$$

*** WEATHER ACROSS MANITOBA...SASKATCHEWAN AND ONTARIO ***
                ***ONTARIO***

CITY           SKY/WX    TMP DP  RH WIND       PRES   REMARKS
GERALDTON      CLOUDY    59  57  94 NW8       29.97S
THUNDER BAY    LGT RAIN  59  57  94 SW5       30.03
SIOUX LOOKOUT  LGT RAIN  59  57  94 SW8       30.09F
TORONTO        PTCLDY    61  48  63 NW15G23   29.86S
BIG TROUT LK   LGT RAIN  61  59  94 NW6       30.01R
PICKLE LAKE    TSTM      64  57  77 NW5       30.03S
DRYDEN         PTCLDY    64  55  72 SW7       30.10F
KENORA         TSTM      66  57  72 N12G18    30.16R
$$
                *** MANITOBA***

CITY           SKY/WX    TMP DP  RH WIND       PRES   REMARKS
BRANDON        MOSUNNY   72  55  56 W5        30.22S
DAUPHIN        SUNNY     72  55  56 W5        30.19F
ISLAND LAKE    PTSUNNY   75  52  43 N7        30.07F
PILOT MOUND      N/A     68  54  60 W3          N/A
THE PAS        MOSUNNY   73  54  49 NW3       30.17F
THOMPSON       MOSUNNY   77  52  41 NW8       30.09F
WINNIPEG       MOSUNNY   70  57  64 NW9       30.18S
LYNN LAKE      SUNNY     79  48  34 NW7       30.12S
CHURCHILL      PTSUNNY   54  50  87 E10       30.13S
GILLAM         CLOUDY    73  59  60 NE7       30.05R
$$
                ***SASKATCHEWAN***

CITY           SKY/WX    TMP DP  RH WIND       PRES   REMARKS
ESTEVAN        MOSUNNY   73  59  60 NE3       30.23S
KINDERSLEY     PTSUNNY   73  63  68 E8        30.20F
LLOYDMINSTER   MOSUNNY   77  59  53 S5        30.20F
PRINCE ALBERT  MOSUNNY   73  63  68 SE6       30.19F
REGINA         MOSUNNY   75  59  57 NW6       30.22S
YORKTON        SUNNY     72  57  60 NE5       30.21F
N. BATTLEFORD    N/A     77  61  57 NE3       30.22S
LA RONGE       MOSUNNY   75  54  46 S7        30.17F
SASKATOON      MOSUNNY   77  57  50 NE3       30.22S
SWIFT CURRENT  MOSUNNY   77  52  41 E12       30.22S
$$
NOTE: THESE ARE AUTOMATED STATIONS WITH LIMITED QUALITY CONTROL
      "FAIR" INDICATES FEW OR NO CLOUDS BELOW 12,000 FEET WITH NO
      SIGNIFICANT WEATHER AND/OR OBSTRUCTIONS TO VISIBILITY.
      SKY/WX - SKY CONDITION AND SIGNIFICANT WEATHER.
      TMP - AIR TEMPERATURE.    DP   - DEWPOINT TEMPERATURE.
      RH  - RELATIVE HUMIDITY.  PRES - PRESSURE.
      HX  - HEAT INDEX.         WCI  - WIND CHILL INDEX.
$


USA.gov is the U.S. government's official web portal to all federal, state and local government web resources and services.